Sugarloaf Regional (B21)
Carrabassett, ME
Field Elevation: 885
Lat: 45°05.12N  Long: 70°12.98W
CTAF/Unicom Freq: 122.8000
   
    
Weather Advisories
8/23/2014 11:25 Z
Altimeter 30.20" Hg
Wind 010° @ 0 KT
Gusts --
Visibility 10 SM
Temperature 14° C (57° F)
Dewpoint 13° C (55° F)
Relative Humidity 92%
Density Altitude --
Condensation Altitude 1,400 feet
  Wind and Runways
Indicated Runway = 35
History
 
 
More Info
All DigiWx sites map
 
NOAA Forecast
 
Airport IQ 5010
(39N) Princeton, NJ
(PN44) Upper Gwynedd Heliport
 
about DigiWx
 
FAA Disclaimer: The data displayed is for advisory purposes only and is not to be used for flight planning or operations. For official data, please call (not available) to hear the current automated AWOS voice message.
  METAR B21 231125Z AUTO 01000KT 10SM 14/13 A3020